• In Belarus
  • List of Countries
  • For 7 days
  • Water Temperature
  • Satellite Maps
  • Weather Map
  • Weather Widgets
  • user-avatar
    Login

    Hourly Weather La Rioja

    Today, 20 May, Sunday

    Time Temperature Precipitation Wind Pressure Humidity
    00:00 +14°C° 0 mm 1 mps 717 mmHg 51%
    01:00 +14°C° 0 mm 1 mps 717 mmHg 53%
    02:00 +14°C° 0 mm 1 mps 716 mmHg 54%
    03:00 +13°C° 0 mm 1 mps 716 mmHg 55%
    04:00 +13°C° 0 mm 1 mps 716 mmHg 57%
    05:00 +13°C° 0 mm 1 mps 715 mmHg 59%
    06:00 +13°C° 0 mm 2 mps 715 mmHg 58%
    07:00 +13°C° 0 mm 2 mps 715 mmHg 57%
    08:00 +14°C° 0 mm 2 mps 715 mmHg 54%
    09:00 +16°C° 0 mm 2 mps 715 mmHg 49%
    10:00 +18°C° 0 mm 2 mps 715 mmHg 45%
    11:00 +20°C° 0 mm 2 mps 715 mmHg 40%
    12:00 +21°C° 0 mm 3 mps 714 mmHg 39%
    13:00 +21°C° 0 mm 3 mps 713 mmHg 37%
    14:00 +22°C° 0 mm 3 mps 713 mmHg 35%
    15:00 +23°C° 0 mm 2 mps 712 mmHg 36%
    16:00 +23°C° 0 mm 2 mps 712 mmHg 38%
    17:00 +23°C° 0 mm 2 mps 712 mmHg 39%
    18:00 +20°C° 0 mm 2 mps 712 mmHg 44%
    19:00 +18°C° 0 mm 2 mps 712 mmHg 49%
    20:00 +17°C° 0 mm 2 mps 712 mmHg 54%
    21:00 +16°C° 0 mm 2 mps 713 mmHg 57%
    22:00 +16°C° 0 mm 2 mps 713 mmHg 59%
    23:00 +15°C° 0 mm 2 mps 713 mmHg 62%

    Tomorrow, 21 May, Monday

    Time Temperature Precipitation Wind Pressure Humidity
    00:00 +15°C° 0 mm 2 mps 714 mmHg 65%
    01:00 +14°C° 0 mm 2 mps 714 mmHg 67%
    02:00 +13°C° 0 mm 3 mps 714 mmHg 70%
    03:00 +13°C° 0 mm 3 mps 715 mmHg 72%
    04:00 +13°C° 0 mm 2 mps 715 mmHg 74%
    05:00 +13°C° 0 mm 2 mps 715 mmHg 75%
    06:00 +13°C° 0 mm 2 mps 716 mmHg 73%
    07:00 +14°C° 0 mm 2 mps 716 mmHg 71%
    08:00 +14°C° 0 mm 2 mps 717 mmHg 69%
    09:00 +16°C° 0 mm 2 mps 717 mmHg 62%
    10:00 +17°C° 0 mm 3 mps 718 mmHg 56%
    11:00 +19°C° 0 mm 3 mps 718 mmHg 49%
    12:00 +20°C° 0 mm 3 mps 718 mmHg 47%
    13:00 +20°C° 0 mm 3 mps 717 mmHg 44%
    14:00 +21°C° 0 mm 2 mps 716 mmHg 42%
    15:00 +21°C° 0 mm 2 mps 716 mmHg 43%
    16:00 +20°C° 0 mm 2 mps 716 mmHg 44%
    17:00 +20°C° 0 mm 2 mps 716 mmHg 46%
    18:00 +19°C° 0 mm 2 mps 716 mmHg 52%
    19:00 +17°C° 0 mm 2 mps 717 mmHg 58%
    20:00 +16°C° 0 mm 1 mps 717 mmHg 64%
    21:00 +15°C° 0 mm 1 mps 717 mmHg 65%
    22:00 +15°C° 0 mm 1 mps 718 mmHg 67%
    23:00 +14°C° 0 mm 1 mps 718 mmHg 69%

    Day after tomorrow, 22 May, Tuesday

    Time Temperature Precipitation Wind Pressure Humidity
    00:00 +14°C° 0 mm 1 mps 718 mmHg 71%
    01:00 +14°C° 0 mm 2 mps 718 mmHg 73%
    02:00 +13°C° 0 mm 2 mps 718 mmHg 75%
    03:00 +13°C° 0 mm 2 mps 718 mmHg 77%
    04:00 +13°C° 0 mm 2 mps 718 mmHg 79%
    05:00 +12°C° 0 mm 2 mps 718 mmHg 81%
    06:00 +12°C° 0 mm 2 mps 719 mmHg 79%
    07:00 +13°C° 0 mm 2 mps 719 mmHg 78%
    08:00 +13°C° 0 mm 2 mps 720 mmHg 77%
    09:00 +15°C° 0 mm 2 mps 720 mmHg 70%
    10:00 +16°C° 0 mm 2 mps 720 mmHg 63%
    11:00 +18°C° 0 mm 2 mps 721 mmHg 57%
    12:00 +19°C° 0 mm 2 mps 720 mmHg 54%
    13:00 +20°C° 0 mm 2 mps 719 mmHg 51%
    14:00 +21°C° 0 mm 3 mps 718 mmHg 48%
    15:00 +20°C° 0 mm 2 mps 718 mmHg 49%
    16:00 +20°C° 0 mm 2 mps 718 mmHg 50%
    17:00 +20°C° 0 mm 2 mps 718 mmHg 52%
    18:00 +18°C° 0 mm 2 mps 718 mmHg 57%
    19:00 +17°C° 0 mm 2 mps 718 mmHg 63%
    20:00 +16°C° 0 mm 1 mps 718 mmHg 68%
    21:00 +15°C° 0 mm 1 mps 718 mmHg 71%
    22:00 +15°C° 0 mm 1 mps 718 mmHg 74%
    23:00 +14°C° 0 mm 1 mps 719 mmHg 77%

    23 May, Wednesday

    Time Temperature Precipitation Wind Pressure Humidity
    00:00 +14°C° 0 mm 1 mps 718 mmHg 79%
    01:00 +14°C° 0 mm 1 mps 718 mmHg 81%
    02:00 +13°C° 0 mm 1 mps 718 mmHg 83%
    03:00 +13°C° 0 mm 1 mps 717 mmHg 83%
    04:00 +13°C° 0 mm 1 mps 717 mmHg 83%
    05:00 +13°C° 0 mm 2 mps 717 mmHg 83%
    06:00 +13°C° 0 mm 2 mps 718 mmHg 82%
    07:00 +13°C° 0 mm 2 mps 718 mmHg 81%
    08:00 +14°C° 0 mm 2 mps 719 mmHg 80%
    09:00 +15°C° 0 mm 2 mps 719 mmHg 75%
    10:00 +16°C° 0 mm 2 mps 719 mmHg 70%
    11:00 +17°C° 0 mm 2 mps 719 mmHg 66%
    12:00 +18°C° 0 mm 2 mps 719 mmHg 62%
    13:00 +19°C° 0 mm 2 mps 718 mmHg 59%
    14:00 +20°C° 0 mm 2 mps 718 mmHg 55%
    15:00 +20°C° 0 mm 2 mps 718 mmHg 56%
    16:00 +20°C° 0 mm 2 mps 718 mmHg 57%
    17:00 +19°C° 0 mm 2 mps 718 mmHg 58%
    18:00 +18°C° 0 mm 2 mps 718 mmHg 64%
    19:00 +17°C° 0 mm 2 mps 719 mmHg 70%
    20:00 +16°C° 0 mm 2 mps 719 mmHg 76%
    21:00 +15°C° 0 mm 2 mps 720 mmHg 77%
    22:00 +15°C° 0 mm 1 mps 720 mmHg 78%
    23:00 +14°C° 0 mm 1 mps 720 mmHg 80%

    24 May, Thursday

    Time Temperature Precipitation Wind Pressure Humidity
    00:00 +14°C° 0 mm 1 mps 720 mmHg 80%
    01:00 +14°C° 0 mm 1 mps 720 mmHg 81%
    02:00 +13°C° 0 mm 1 mps 719 mmHg 82%
    03:00 +13°C° 0 mm 1 mps 719 mmHg 83%
    04:00 +13°C° 0 mm 1 mps 719 mmHg 83%
    05:00 +13°C° 0 mm 1 mps 719 mmHg 84%
    06:00 +13°C° 0 mm 1 mps 719 mmHg 82%
    07:00 +14°C° 0 mm 1 mps 719 mmHg 80%
    08:00 +14°C° 0 mm 2 mps 720 mmHg 78%
    09:00 +16°C° 0 mm 2 mps 720 mmHg 71%
    10:00 +18°C° 0 mm 2 mps 719 mmHg 63%
    11:00 +20°C° 0 mm 2 mps 719 mmHg 55%
    12:00 +21°C° 0 mm 3 mps 718 mmHg 51%
    13:00 +21°C° 0 mm 3 mps 717 mmHg 48%
    14:00 +22°C° 0 mm 3 mps 716 mmHg 45%
    15:00 +22°C° 0 mm 3 mps 716 mmHg 46%
    16:00 +23°C° 0 mm 2 mps 716 mmHg 48%
    17:00 +23°C° 0 mm 2 mps 715 mmHg 49%
    18:00 +20°C° 0 mm 2 mps 716 mmHg 54%
    19:00 +19°C° 0 mm 2 mps 716 mmHg 59%
    20:00 +17°C° 0 mm 2 mps 716 mmHg 64%
    21:00 +17°C° 0 mm 2 mps 716 mmHg 66%
    22:00 +16°C° 0 mm 2 mps 716 mmHg 68%
    23:00 +16°C° 0 mm 2 mps 716 mmHg 70%

    25 May, Friday

    Time Temperature Precipitation Wind Pressure Humidity
    00:00 +15°C° 0 mm 2 mps 716 mmHg 72%
    01:00 +15°C° 0 mm 2 mps 716 mmHg 75%
    02:00 +14°C° 0 mm 2 mps 715 mmHg 77%
    03:00 +14°C° 0 mm 2 mps 715 mmHg 77%
    04:00 +14°C° 0 mm 2 mps 715 mmHg 77%
    05:00 +13°C° 0 mm 2 mps 714 mmHg 77%
    06:00 +14°C° 0 mm 2 mps 714 mmHg 75%
    07:00 +14°C° 0 mm 2 mps 714 mmHg 72%
    08:00 +14°C° 0 mm 2 mps 714 mmHg 70%
    09:00 +16°C° 0 mm 2 mps 714 mmHg 62%
    10:00 +18°C° 0 mm 2 mps 714 mmHg 54%
    11:00 +20°C° 0 mm 2 mps 714 mmHg 46%
    12:00 +21°C° 0 mm 2 mps 713 mmHg 43%
    13:00 +22°C° 0 mm 3 mps 712 mmHg 41%
    14:00 +24°C° 0 mm 3 mps 711 mmHg 38%
    15:00 +24°C° 0 mm 2 mps 711 mmHg 39%
    16:00 +24°C° 0 mm 2 mps 711 mmHg 40%
    17:00 +23°C° 0 mm 2 mps 711 mmHg 42%
    18:00 +21°C° 0 mm 2 mps 711 mmHg 46%
    19:00 +19°C° 0 mm 2 mps 711 mmHg 51%
    20:00 +19°C° 0 mm 1 mps 711 mmHg 56%
    21:00 +18°C° 0 mm 1 mps 711 mmHg 56%
    22:00 +17°C° 0 mm 2 mps 711 mmHg 57%
    23:00 +16°C° 0 mm 2 mps 711 mmHg 58%
    Show more